Simultaneous Nadir Overpasses (SNOs) Predictions

Prediction of SNOs between TERRA and METOP-C Satellite Orbit:

Table of predicted SNOs for the next 14.0 days since TLE Epoch: 11/16/2024
Index Date (TERRA) Time (TERRA) Lat,Lon (TERRA) SZA (TERRA ) Date (METOP-C) Time (METOP-C) Lat,Lon (METOP-C) SZA (METOP-C ) Distance(km) Time Diff (sec)
1 11/17/2024 18:03:43 62.53,-110.95 82.63 11/17/2024 18:03:08 62.52,-110.96 82.65 0.71 35
2 11/17/2024 18:51:52 -66.67, 60.35 93.67 11/17/2024 18:52:36 -66.67, 60.32 93.69 1.37 44
3 11/20/2024 07:44:48 -59.63,-138.06 99.30 11/20/2024 07:43:41 -59.64,-138.06 99.25 0.33 67
4 11/20/2024 08:32:33 65.06, 33.71 85.50 11/20/2024 08:32:42 65.07, 33.75 85.50 2.03 9
5 11/22/2024 22:13:36 -62.24, 6.30 96.43 11/22/2024 22:13:14 -62.24, 6.31 96.42 0.51 22
6 11/22/2024 23:01:45 66.25, 177.40 87.14 11/22/2024 23:02:40 66.25, 177.38 87.12 1.09 55
7 11/25/2024 11:54:51 58.41, -21.33 80.78 11/25/2024 11:53:57 58.41, -21.35 80.81 1.84 54
8 11/25/2024 12:42:31 -64.30, 150.52 94.07 11/25/2024 12:42:55 -64.30, 150.52 94.08 0.18 24
9 11/28/2024 02:23:27 61.61, 123.34 84.06 11/28/2024 02:23:19 61.61, 123.34 84.07 0.05 8



Historial Predications of SNOs between TERRA and METOP-C
